User: anonymous   Login
Location: Unspecified
(0.0000°N, 0.0000°E)
Time: 14:50:36
(UTC+01:00)
Language:

Delta 2 Rocket - Orbit

View from above orbital plane
View from above orbital plane
View from above satellite
View from above satellite

Ground track
Ground track

The orbit data is extracted from the following two-line orbital elements,

1 20453U 90008B   17053.46233149  .00001701  00000-0  99058-4 0  9993
2 20453  35.6260 184.1556 0291498 294.2207  62.8303 14.82855019431167
Epoch (UTC): 22 February 2017 11:05:45
Eccentricity: 0.0291498
inclination: 35.6260°
perigee height: 416 km
apogee height: 824 km
right ascension of ascending node: 184.1556°
argument of perigee: 294.2207°
revolutions per day: 14.82855019
mean anomaly at epoch: 62.8303°
orbit number at epoch: 43116

The dashed part of the orbit path shows where the satellite is in the earth's shadow,  

DLR